When you browse on this site, cookies collect data to enhance your experience and personalize the content and advertising you see.
Visit our Privacy Policy to learn more. By continuing to use the site, you agree to this use of cookies and data.
  • In France
  • List of Countries
  • For 7 days
  • Water Temperature
  • Weather Map
  • Weather Widgets
  • user-avatar
    Login

    Hourly Weather Nkongsamba

    Today, 1 June, Monday

    Time Temperature Precipitation Wind Pressure Humidity
    00:00 +20°C° 0.1 mm 0 mps 687 mmHg 98%
    01:00 +19°C° 0 mm 0 mps 687 mmHg 98%
    02:00 +19°C° 1.1 mm 0 mps 686 mmHg 98%
    03:00 +19°C° 1.1 mm 0 mps 686 mmHg 98%
    04:00 +19°C° 1.1 mm 0 mps 686 mmHg 97%
    05:00 +20°C° 0.3 mm 0 mps 686 mmHg 97%
    06:00 +20°C° 0.3 mm 0 mps 687 mmHg 97%
    07:00 +20°C° 0.3 mm 0 mps 687 mmHg 96%
    08:00 +22°C° 0.1 mm 0 mps 687 mmHg 88%
    09:00 +24°C° 0.1 mm 0 mps 688 mmHg 80%
    10:00 +26°C° 0.1 mm 0 mps 688 mmHg 72%
    11:00 +28°C° 0.8 mm 1 mps 688 mmHg 73%
    12:00 +28°C° 0.8 mm 1 mps 688 mmHg 74%
    13:00 +28°C° 0.8 mm 1 mps 687 mmHg 75%
    14:00 +28°C° 1.6 mm 1 mps 686 mmHg 80%
    15:00 +27°C° 1.6 mm 1 mps 686 mmHg 84%
    16:00 +27°C° 1.6 mm 1 mps 685 mmHg 88%
    17:00 +25°C° 1.8 mm 1 mps 685 mmHg 91%
    18:00 +24°C° 1.8 mm 1 mps 686 mmHg 94%
    19:00 +21°C° 1.8 mm 0 mps 686 mmHg 97%
    20:00 +20°C° 2.2 mm 0 mps 686 mmHg 97%
    21:00 +20°C° 2.2 mm 0 mps 686 mmHg 97%
    22:00 +20°C° 2.2 mm 0 mps 686 mmHg 97%
    23:00 +20°C° 1.3 mm 0 mps 686 mmHg 97%

    Tomorrow, 2 June, Tuesday

    Time Temperature Precipitation Wind Pressure Humidity
    00:00 +20°C° 1.3 mm 0 mps 686 mmHg 97%
    01:00 +20°C° 1.3 mm 0 mps 686 mmHg 97%
    02:00 +19°C° 0.8 mm 0 mps 686 mmHg 97%
    03:00 +19°C° 0.8 mm 0 mps 686 mmHg 97%
    04:00 +19°C° 0.8 mm 0 mps 686 mmHg 97%
    05:00 +19°C° 0.4 mm 0 mps 686 mmHg 97%
    06:00 +20°C° 0.4 mm 0 mps 686 mmHg 97%
    07:00 +20°C° 0.4 mm 0 mps 687 mmHg 97%
    08:00 +21°C° 0.2 mm 0 mps 687 mmHg 94%
    09:00 +21°C° 0.2 mm 0 mps 687 mmHg 92%
    10:00 +24°C° 0.2 mm 1 mps 688 mmHg 89%
    11:00 +25°C° 0.4 mm 1 mps 687 mmHg 86%
    12:00 +26°C° 0.4 mm 1 mps 687 mmHg 82%
    13:00 +27°C° 0.4 mm 1 mps 687 mmHg 79%
    14:00 +27°C° 0.9 mm 1 mps 686 mmHg 81%
    15:00 +26°C° 1 mm 1 mps 685 mmHg 84%
    16:00 +26°C° 1 mm 1 mps 685 mmHg 86%
    17:00 +25°C° 1.2 mm 1 mps 685 mmHg 90%
    18:00 +24°C° 1.2 mm 1 mps 685 mmHg 94%
    19:00 +22°C° 1.2 mm 1 mps 685 mmHg 98%
    20:00 +20°C° 0.6 mm 0 mps 686 mmHg 98%
    21:00 +20°C° 0.6 mm 0 mps 686 mmHg 98%
    22:00 +20°C° 0.6 mm 0 mps 687 mmHg 98%
    23:00 +20°C° 0.4 mm 0 mps 687 mmHg 98%

    Day after tomorrow, 3 June, Wednesday

    Time Temperature Precipitation Wind Pressure Humidity
    00:00 +20°C° 0.4 mm 0 mps 686 mmHg 99%
    01:00 +19°C° 0.4 mm 0 mps 686 mmHg 99%
    02:00 +19°C° 0.1 mm 0 mps 686 mmHg 98%
    03:00 +19°C° 0.1 mm 0 mps 686 mmHg 98%
    04:00 +19°C° 0.1 mm 0 mps 686 mmHg 98%
    05:00 +20°C° 0 mm 0 mps 686 mmHg 98%
    06:00 +20°C° 0 mm 0 mps 686 mmHg 98%
    07:00 +20°C° 0 mm 0 mps 686 mmHg 98%
    08:00 +21°C° 0 mm 0 mps 687 mmHg 91%
    09:00 +23°C° 0 mm 0 mps 687 mmHg 85%
    10:00 +26°C° 0 mm 1 mps 688 mmHg 79%
    11:00 +27°C° 0.1 mm 1 mps 687 mmHg 76%
    12:00 +27°C° 0.1 mm 1 mps 687 mmHg 74%
    13:00 +28°C° 0.1 mm 1 mps 687 mmHg 71%
    14:00 +27°C° 0.9 mm 1 mps 686 mmHg 75%
    15:00 +27°C° 0.9 mm 1 mps 685 mmHg 80%
    16:00 +24°C° 0.9 mm 0 mps 685 mmHg 84%
    17:00 +23°C° 0.3 mm 0 mps 685 mmHg 88%
    18:00 +22°C° 0.3 mm 0 mps 685 mmHg 93%
    19:00 +21°C° 0.3 mm 0 mps 685 mmHg 97%
    20:00 +20°C° 0.7 mm 0 mps 685 mmHg 97%
    21:00 +20°C° 0.7 mm 0 mps 686 mmHg 98%
    22:00 +20°C° 0.7 mm 0 mps 686 mmHg 98%
    23:00 +20°C° 0.1 mm 0 mps 686 mmHg 98%

    4 June, Thursday

    Time Temperature Precipitation Wind Pressure Humidity
    00:00 +20°C° 0.1 mm 0 mps 686 mmHg 98%
    01:00 +19°C° 0.1 mm 0 mps 686 mmHg 98%
    02:00 +19°C° 0.1 mm 0 mps 686 mmHg 98%
    03:00 +19°C° 0.1 mm 0 mps 685 mmHg 98%
    04:00 +19°C° 0.1 mm 0 mps 685 mmHg 98%
    05:00 +20°C° 0.1 mm 0 mps 685 mmHg 97%
    06:00 +20°C° 0.1 mm 0 mps 686 mmHg 97%
    07:00 +20°C° 0.1 mm 0 mps 686 mmHg 96%
    08:00 +22°C° 0 mm 0 mps 687 mmHg 88%
    09:00 +24°C° 0 mm 0 mps 687 mmHg 81%
    10:00 +25°C° 0 mm 0 mps 688 mmHg 73%
    11:00 +28°C° 0.2 mm 1 mps 687 mmHg 71%
    12:00 +29°C° 0.2 mm 1 mps 687 mmHg 68%
    13:00 +29°C° 0.2 mm 1 mps 687 mmHg 66%
    14:00 +29°C° 0.6 mm 1 mps 686 mmHg 70%
    15:00 +28°C° 0.6 mm 1 mps 685 mmHg 74%
    16:00 +28°C° 0.6 mm 1 mps 685 mmHg 78%
    17:00 +26°C° 0.6 mm 1 mps 685 mmHg 84%
    18:00 +25°C° 0.6 mm 1 mps 685 mmHg 91%
    19:00 +21°C° 0.6 mm 0 mps 685 mmHg 98%
    20:00 +21°C° 0.6 mm 0 mps 685 mmHg 98%
    21:00 +21°C° 0.6 mm 0 mps 686 mmHg 98%
    22:00 +21°C° 0.6 mm 0 mps 686 mmHg 99%
    23:00 +21°C° 0.4 mm 0 mps 686 mmHg 99%

    5 June, Friday

    Time Temperature Precipitation Wind Pressure Humidity
    00:00 +21°C° 0.4 mm 0 mps 686 mmHg 99%
    01:00 +20°C° 0.4 mm 0 mps 686 mmHg 99%
    02:00 +20°C° 0.3 mm 0 mps 686 mmHg 99%
    03:00 +20°C° 0.3 mm 0 mps 686 mmHg 99%
    04:00 +20°C° 0.3 mm 0 mps 685 mmHg 99%
    05:00 +20°C° 0.1 mm 0 mps 686 mmHg 98%
    06:00 +20°C° 0.1 mm 0 mps 686 mmHg 98%
    07:00 +20°C° 0.1 mm 0 mps 686 mmHg 97%
    08:00 +22°C° 0.2 mm 0 mps 687 mmHg 93%
    09:00 +23°C° 0.2 mm 0 mps 688 mmHg 88%
    10:00 +26°C° 0.2 mm 1 mps 688 mmHg 84%
    11:00 +26°C° 0.9 mm 1 mps 688 mmHg 83%
    12:00 +27°C° 0.9 mm 1 mps 687 mmHg 82%
    13:00 +27°C° 0.9 mm 1 mps 687 mmHg 82%
    14:00 +27°C° 0.9 mm 1 mps 687 mmHg 83%
    15:00 +27°C° 0.9 mm 1 mps 686 mmHg 85%
    16:00 +26°C° 0.9 mm 1 mps 686 mmHg 87%
    17:00 +25°C° 0.6 mm 1 mps 686 mmHg 91%
    18:00 +22°C° 0.6 mm 0 mps 686 mmHg 94%
    19:00 +21°C° 0.6 mm 0 mps 686 mmHg 98%
    20:00 +21°C° 0.1 mm 0 mps 686 mmHg 98%
    21:00 +20°C° 0.1 mm 0 mps 686 mmHg 99%
    22:00 +20°C° 0.1 mm 0 mps 686 mmHg 99%
    23:00 +20°C° 0 mm 0 mps 686 mmHg 99%

    6 June, Saturday

    Time Temperature Precipitation Wind Pressure Humidity
    00:00 +20°C° 0 mm 0 mps 686 mmHg 99%
    01:00 +20°C° 0 mm 0 mps 686 mmHg 98%
    02:00 +20°C° 0.4 mm 0 mps 686 mmHg 98%
    03:00 +19°C° 0.4 mm 0 mps 686 mmHg 98%
    04:00 +19°C° 0.4 mm 0 mps 686 mmHg 98%
    05:00 +19°C° 0 mm 0 mps 686 mmHg 97%
    06:00 +20°C° 0 mm 0 mps 687 mmHg 97%
    07:00 +20°C° 0 mm 0 mps 687 mmHg 96%
    08:00 +22°C° 0.2 mm 0 mps 688 mmHg 89%
    09:00 +23°C° 0.2 mm 0 mps 688 mmHg 82%
    10:00 +25°C° 0.2 mm 0 mps 689 mmHg 76%
    11:00 +26°C° 0.8 mm 0 mps 688 mmHg 73%
    12:00 +26°C° 0.8 mm 0 mps 688 mmHg 71%
    13:00 +27°C° 0.8 mm 0 mps 688 mmHg 69%
    14:00 +29°C° 0.4 mm 1 mps 687 mmHg 66%
    15:00 +29°C° 0.4 mm 1 mps 686 mmHg 64%
    16:00 +29°C° 0.4 mm 1 mps 686 mmHg 62%
    17:00 +27°C° 0.4 mm 1 mps 686 mmHg 73%
    18:00 +23°C° 0.4 mm 0 mps 685 mmHg 85%
    19:00 +21°C° 0.4 mm 0 mps 685 mmHg 96%
    20:00 +21°C° 0 mm 0 mps 685 mmHg 97%
    21:00 +20°C° 0 mm 0 mps 686 mmHg 98%
    22:00 +20°C° 0 mm 0 mps 686 mmHg 98%
    23:00 +20°C° 0 mm 0 mps 686 mmHg 98%
    Show more